Location: Unspecified
(0.0000°N, 0.0000°E)
Time: 18:04:25
(UTC+00:00)

deb Briz - Pass Details

Date: 17 February 2026
Orbit: 1949 x 2166 km, 64.8° (Epoch: 6 March)

Event Time Altitude Azimuth Distance (km) Brightness Sun altitude
Rises 04:35:09 0° 355° (N) 5,568 ? -24.1°
Reaches altitude 10° 04:38:53 10° 3° (N) 4,594 ? -23.2°
Maximum altitude 04:49:55 41° 69° (ENE) 2,853 ? -20.5°
Drops below altitude 10° 05:01:05 10° 135° (SE) 4,686 ? -17.8°
Sets 05:04:52 0° 142° (SE) 5,689 ? -16.9°
